Location: Noverd
(38.0910°N, 121.6877°W)
Time: 17:39:57
(UTC+00:00)

Cosmos 990 Rocket - Visible Passes

Search period start: 21 May 2026 00:00
Search period end: 31 May 2026 00:00
Orbit: 743 x 763 km, 74.0° (Epoch: 21 May)

Date Brightness Start Highest point End Pass type
(mag) Time Alt. Az. Time Alt. Az. Time Alt. Az.
21 May 6.0 03:56:09 10° NNE 03:58:24 13° NE 04:00:40 10° E visible
21 May 3.9 05:35:34 10° NNW 05:40:45 79° WSW 05:41:57 53° S visible
22 May 4.2 04:54:00 10° N 04:59:05 54° ENE 05:01:19 31° SE visible
22 May 6.1 06:37:13 10° WNW 06:40:17 16° W 06:41:16 15° WSW visible
23 May 5.1 04:12:47 10° N 04:17:16 28° ENE 04:20:42 15° ESE visible
23 May 5.3 05:54:24 10° NW 05:58:55 31° W 06:00:39 25° SW visible
24 May 4.3 05:12:19 10° NNW 05:17:26 62° WSW 05:20:05 28° S visible
25 May 4.0 04:30:38 10° NNW 04:35:49 68° ENE 04:39:32 19° SSE visible
25 May 6.4 06:14:48 10° WNW 06:16:52 12° W 06:18:56 10° WSW visible
26 May 4.8 03:49:17 10° N 03:54:03 35° ENE 03:58:48 10° SE visible
26 May 5.8 05:31:23 10° NW 05:35:33 25° W 05:39:01 13° SSW visible
27 May 4.8 04:49:07 10° NNW 04:54:07 49° WSW 04:58:34 13° S visible
28 May 4.0 04:07:19 10° NNW 04:12:32 85° ENE 04:17:45 10° SSE visible
29 May 6.2 05:08:29 10° NW 05:12:10 20° W 05:15:50 10° SW visible
30 May 5.3 04:25:58 10° NW 04:30:46 38° WSW 04:35:33 10° SSW visible
